Flag for Colombia Weather past 2 weeks in Manizales, Colombia

Now
70 °F

Passing clouds.


Feels Like: 70 °F
Forecast: 57 / 69 °F
Wind: 2 mph from North

Location: Pereira / Matecana

Current Time: Aug 2, 2014 at 2:25:32 AM

Latest Report: Aug 2, 2014 at 1:00 AM


Visibility: N/A

Pressure: 30.10 "Hg

Humidity: 83%

Dew point: 64 °F

Location of ManizalesLocation

Historic Weather in Manizales — Graph

°F

Manizales temperature yesterday

Maximum temperature yesterday: 81 °F (at 1:00 PM)
Minimum temperature yesterday: 66 °F (at 5:00 AM)
Average temperature yesterday: 74 °F

Past Weeks' High & Low Weather Summary

 TemperatureHumidityPressure
High88 °F (Jul 19, 4:00 PM)94% (Jul 23, 5:00 AM)30.19 "Hg (Jul 23, 5:00 AM)
Low64 °F (Jul 20, 7:00 AM)40% (Jul 19, 4:00 PM)29.93 "Hg (Jul 24, 4:00 PM)
Average75 °F68%30.07 "Hg
* Reported Jul 18 5:00 AM — Aug 2 1:00 AM, Manizales, Weather by CustomWeather, © 2014

Note: Actual official high and low records may vary slightly from our data, if they occured in-between our weather recording intervals... More about our weather records

Advertising

Manizales weather history for previous 24 hours

 ConditionsComfort  
Time TempWeatherWind HumidityBarometerVisibility
1:00 AM
Aug 2
70 °FPassing clouds.2 mph83%30.10 "HgN/A
12:00 AM72 °FPassing clouds.2 mph78%30.11 "HgN/A
11:00 PM
Aug 1
72 °FPassing clouds.5 mph78%30.11 "HgN/A
10:00 PM72 °FPassing clouds.2 mph78%30.08 "HgN/A
9:00 PM73 °FPassing clouds.2 mph74%30.07 "HgN/A
8:00 PM75 °FPassing clouds.2 mph69%30.04 "HgN/A
7:00 PM77 °FPassing clouds.3 mph61%29.99 "HgN/A
6:00 PM77 °FScattered clouds.5 mph65%29.98 "HgN/A
5:00 PM79 °FScattered clouds.9 mph61%29.97 "HgN/A
4:00 PM81 °FScattered clouds.5 mph54%29.96 "HgN/A
3:00 PM81 °FPartly sunny.7 mph58%29.98 "HgN/A
2:00 PM81 °FScattered clouds.7 mph58%30.02 "HgN/A
1:00 PM81 °FScattered clouds.3 mph62%30.01 "HgN/A
12:00 PM79 °FScattered clouds.3 mph61%30.04 "HgN/A
11:00 AM77 °FScattered clouds.6 mph65%30.06 "HgN/A
10:00 AM77 °FScattered clouds.5 mph65%30.09 "HgN/A
9:00 AM73 °FScattered clouds.5 mph69%30.10 "HgN/A
8:00 AM70 °FScattered clouds.2 mph78%30.08 "HgN/A
7:00 AM66 °FScattered clouds.6 mph83%30.07 "HgN/A
6:00 AM66 °FPassing clouds.7 mph83%30.06 "HgN/A
5:00 AM66 °FPassing clouds.7 mph83%30.03 "HgN/A
Weather by CustomWeather, © 2014

See weather overviewHow to use our weather pages